TimeEST,TemperatureF,Dew PointF,Humidity,Sea Level PressureIn,VisibilityMPH,Wind Direction,Wind SpeedMPH,Gust SpeedMPH,PrecipitationIn,Events,Conditions,WindDirDegrees,DateUTC
12:04 AM,26.6,23.0,86,30.18,2.0,NNW,11.5,-,0.00,Snow,Light Snow,340,2013-03-08 05:04:00
12:13 AM,26.6,23.0,86,30.17,1.8,NNW,11.5,-,0.00,Snow,Light Snow,330,2013-03-08 05:13:00
12:23 AM,26.6,23.0,86,30.17,2.0,NNW,12.7,18.4,0.00,Snow,Light Snow,340,2013-03-08 05:23:00
12:34 AM,26.6,23.0,86,30.17,2.0,NNW,13.8,-,0.00,Snow,Light Snow,330,2013-03-08 05:34:00
12:48 AM,26.6,24.8,93,30.17,2.0,NNW,11.5,-,0.00,Snow,Light Snow,330,2013-03-08 05:48:00
12:56 AM,26.1,24.1,92,30.22,1.8,NNW,12.7,-,0.00,Snow,Light Snow,340,2013-03-08 05:56:00
1:56 AM,26.1,23.0,88,30.22,1.8,North,10.4,-,0.00,Snow,Light Snow,350,2013-03-08 06:56:00
2:37 AM,26.6,24.8,93,30.18,2.0,NNW,9.2,-,0.01,Snow,Light Snow,340,2013-03-08 07:37:00
2:56 AM,26.1,23.0,88,30.22,2.5,NNW,12.7,-,0.01,Snow,Light Snow,340,2013-03-08 07:56:00
3:12 AM,26.6,23.0,86,30.19,4.0,NNW,9.2,18.4,0.00,Snow,Light Snow,340,2013-03-08 08:12:00
3:47 AM,26.6,23.0,86,30.19,2.5,NNW,11.5,-,0.00,Snow,Light Snow,340,2013-03-08 08:47:00
3:56 AM,26.1,23.0,88,30.23,2.5,NNW,9.2,-,0.00,Snow,Light Snow,340,2013-03-08 08:56:00
4:25 AM,26.6,23.0,86,30.20,3.0,NNW,8.1,-,0.00,Snow,Light Snow,340,2013-03-08 09:25:00
4:56 AM,26.1,23.0,88,30.25,5.0,NNW,11.5,-,0.01,Snow,Light Snow,330,2013-03-08 09:56:00
5:28 AM,26.6,21.2,80,30.22,5.0,NNW,11.5,-,0.00,Snow,Light Snow,340,2013-03-08 10:28:00
5:56 AM,26.1,23.0,88,30.26,4.0,NNW,10.4,-,0.00,Snow,Light Snow,340,2013-03-08 10:56:00
6:30 AM,26.6,23.0,86,30.23,3.0,North,11.5,18.4,0.00,Snow,Light Snow,350,2013-03-08 11:30:00
6:56 AM,26.1,23.0,88,30.28,5.0,NNW,8.1,17.3,0.00,Snow,Light Snow,330,2013-03-08 11:56:00
7:56 AM,26.1,23.0,88,30.30,10.0,North,12.7,19.6,0.00,Snow,Light Snow Showers,350,2013-03-08 12:56:00
8:56 AM,28.0,23.0,81,30.31,10.0,NNW,13.8,-,0.00,,Overcast,340,2013-03-08 13:56:00
9:56 AM,30.0,23.0,75,30.31,10.0,NNW,13.8,-,N/A,,Mostly Cloudy,340,2013-03-08 14:56:00
10:56 AM,32.0,22.1,67,30.31,10.0,NNW,16.1,19.6,N/A,,Mostly Cloudy,340,2013-03-08 15:56:00
11:56 AM,32.9,22.1,65,30.32,10.0,NNW,16.1,-,N/A,,Mostly Cloudy,330,2013-03-08 16:56:00
12:56 PM,34.0,23.0,64,30.31,10.0,North,11.5,21.9,N/A,,Mostly Cloudy,350,2013-03-08 17:56:00
1:56 PM,32.9,22.1,65,30.32,10.0,NNW,19.6,23.0,N/A,,Scattered Clouds,340,2013-03-08 18:56:00
2:56 PM,34.0,23.0,64,30.32,10.0,NNW,12.7,-,N/A,,Scattered Clouds,340,2013-03-08 19:56:00
3:56 PM,34.0,22.1,62,30.33,10.0,NNW,16.1,-,N/A,,Scattered Clouds,340,2013-03-08 20:56:00
4:56 PM,34.0,21.0,59,30.35,10.0,NNW,12.7,20.7,N/A,,Partly Cloudy,340,2013-03-08 21:56:00
5:56 PM,32.9,21.0,62,30.36,10.0,NNW,8.1,-,N/A,,Clear,340,2013-03-08 22:56:00
6:56 PM,31.1,19.0,61,30.38,10.0,North,6.9,-,N/A,,Clear,350,2013-03-08 23:56:00
7:56 PM,29.1,19.0,66,30.39,10.0,NNW,6.9,-,N/A,,Clear,340,2013-03-09 00:56:00
8:56 PM,29.1,19.0,66,30.40,10.0,NNE,4.6,-,N/A,,Clear,20,2013-03-09 01:56:00
9:56 PM,28.0,18.1,66,30.40,10.0,NNE,5.8,-,N/A,,Clear,20,2013-03-09 02:56:00
10:56 PM,23.0,17.1,78,30.39,10.0,Calm,Calm,-,N/A,,Clear,0,2013-03-09 03:56:00
11:56 PM,20.1,16.2,85,30.39,10.0,Calm,Calm,-,N/A,,Clear,0,2013-03-09 04:56:00